This is the latest recevied weather packets stored in our database for station/object N7CEE-2. If no packets are shown the sender has not sent any weather packets the latest 10 day(s).
| Time | Temp. | Humidity | Pressure | Rain* | Wind** | Luminosity | Snow |
|---|---|---|---|---|---|---|---|
| 1777274344 | 17.78° C | 35% | 1014.8 hPa | 0 mm | - | 0 W/m² | - |
| 1777274038 | 17.78° C | 35% | 1015 hPa | 0 mm | - | 0 W/m² | - |
| 1777273735 | 18.33° C | 35% | 1014.9 hPa | 0 mm | - | 0 W/m² | - |
| 1777273434 | 17.78° C | 34% | 1014.9 hPa | 0 mm | - | 0 W/m² | - |
| 1777273131 | 18.33° C | 35% | 1014.9 hPa | 0 mm | - | 0 W/m² | - |
| 1777272828 | 18.33° C | 35% | 1015 hPa | 0 mm | - | 0 W/m² | - |
| 1777272525 | 18.33° C | 34% | 1015 hPa | 0 mm | - | 0 W/m² | - |
| 1777272223 | 18.33° C | 34% | 1014.9 hPa | 0 mm | - | 0 W/m² | - |
| 1777271919 | 18.33° C | 34% | 1014.8 hPa | 0 mm | - | 0 W/m² | - |
| 1777271615 | 18.89° C | 34% | 1014.8 hPa | 0 mm | - | 0 W/m² | - |
| 1777271312 | 18.89° C | 34% | 1014.7 hPa | 0 mm | - | 0 W/m² | - |
| 1777271008 | 18.89° C | 34% | 1014.6 hPa | 0 mm | - | 0 W/m² | - |
| 1777270704 | 18.89° C | 34% | 1014.7 hPa | 0 mm | - | 0 W/m² | - |
| 1777270401 | 18.89° C | 34% | 1014.6 hPa | 0 mm | - | 0 W/m² | - |
| 1777270097 | 18.89° C | 34% | 1014.5 hPa | 0 mm | - | 0 W/m² | - |
| 1777269795 | 18.89° C | 33% | 1014.5 hPa | 0 mm | - | 0 W/m² | - |
| 1777269491 | 18.89° C | 33% | 1014.4 hPa | 0 mm | - | 0 W/m² | - |
| 1777269189 | 18.89° C | 34% | 1014.3 hPa | 0 mm | - | 0 W/m² | - |
| 1777268885 | 19.44° C | 34% | 1014.3 hPa | 0 mm | - | 0 W/m² | - |
| 1777268583 | 19.44° C | 34% | 1014.4 hPa | 0 mm | - | 0 W/m² | - |
| 1777268279 | 19.44° C | 34% | 1014.3 hPa | 0 mm | - | 0 W/m² | - |
| 1777267976 | 19.44° C | 34% | 1014.4 hPa | 0 mm | - | 0 W/m² | - |
| 1777267673 | 19.44° C | 34% | 1014.1 hPa | 0 mm | - | 0 W/m² | - |
| 1777267371 | 19.44° C | 34% | 1014.4 hPa | 0 mm | - | 0 W/m² | - |
| 1777267066 | 20° C | 34% | 1014.1 hPa | 0 mm | - | 0 W/m² | - |
* Rain latest hour (hover to see other rain measurements)
** Current wind speed in m/s (hover to see current wind gust speed)